Location: Airlie Beach - Cannonvale QLD, Australia
(20.2768°S, 148.7558°E)
Time: 04:51:45
(UTC+10:00)

BlueWalker 3 - Pass Details

Date: 03 April 2023
Orbit: 494 x 513 km, 53.2° (Epoch: 31 May)

Event Time Altitude Azimuth Distance (km) Brightness Sun altitude
Exits shadow 05:11:24 20° 228° (SW) 1,192 3.4 -15.1°
Maximum altitude 05:11:26 20° 227° (SW) 1,192 3.4 -15.1°
Drops below altitude 10° 05:14:21 10° 178° (S) 1,709 4.7 -14.4°
Sets 05:16:59 0° 161° (SSE) 2,601 5.8 -13.8°
